Regional Weather Roundup
Issued by NWS Upton, NY

Current Version | Previous Version | Graphics & Text | Print | Product List | Glossary Off
Versions: 1 2 3 4 5 6 7 8 9 10 11 12 13 14 15 16 17 18 19 20 21 22 23 24 25 26 27 28 29 30 31 32 33 34 35 36 37 38 39 40 41 42 43 44 45 46 47 48 49 50

000
ASUS41 KOKX 281305
RWROKX

REGIONAL WEATHER ROUNDUP
NATIONAL WEATHER SERVICE NEW YORK NY
800 AM EST SUN DEC 28 2014

NOTE: "FAIR" INDICATES FEW OR NO CLOUDS BELOW 12,000 FEET WITH NO
SIGNIFICANT WEATHER AND/OR OBSTRUCTIONS TO VISIBILITY.

NYZ071-072-176-178-NJZ106-104-281400-
NEW YORK CITY METRO AREA


CITY           SKY/WX    TMP DP  RH WIND       PRES   REMARKS
CENTRAL PARK   LGT RAIN  45  39  79 CALM      29.92F
LAGUARDIA APRT LGT RAIN  46  40  79 S6        29.91F
KENNEDY INTL   LGT RAIN  45  39  79 SW8       29.93S
NEWARK/LIBERTY LGT RAIN  43  40  89 S5        29.91F
BRNX BOT. GARD   N/A     45  39  81 SW6       29.90F
TETERBORO      LGT RAIN  43  40  89 CALM      29.88F FOG
$$

NYZ177-179-078>081-281400-
LONG ISLAND NEW YORK

CITY           SKY/WX    TMP DP  RH WIND       PRES   REMARKS
FARMINGDALE    LGT RAIN  46  39  76 SW6       29.92S
ISLIP          LGT RAIN  46  40  79 SW8       29.89F
SHIRLEY        CLOUDY    47  41  80 SW9       29.91F
WESTHAMPTON    CLOUDY    49  42  77 SW13      29.92F
MONTAUK POINT    N/A     51  44  77 SW13G20   29.91S
$$

NYZ052-065-067-281400-
HUDSON VALLEY

CITY           SKY/WX    TMP DP  RH WIND       PRES   REMARKS
WHITE PLAINS   LGT RAIN  43  40  89 S3        29.87F FOG
NEWBURGH       CLOUDY    43  39  87 SW7       29.85F
MONTGOMERY     CLOUDY    42  39  89 W5        29.84F
POUGHKEEPSIE   LGT RAIN  44  40  85 CALM      29.85F
ALBANY         LGT RAIN  43  39  86 S8        29.84R
$$

NJZ001-105-106-008-010-013-015-019>022-104-281400-
NEW JERSEY

CITY           SKY/WX    TMP DP  RH WIND       PRES   REMARKS
NEWARK/LIBERTY LGT RAIN  43  40  89 S5        29.91F
TETERBORO      LGT RAIN  43  40  89 CALM      29.88F FOG
CALDWELL       LGT RAIN  42  40  92 S5        29.88F FOG
MORRISTOWN     LGT RAIN  43  41  93 S3        29.90F
SOMERVILLE     LGT RAIN  38  36  92 S3        29.88F FOG
SUSSEX         CLOUDY    41  38  89 CALM      29.85F
ANDOVER        NOT AVBL
TRENTON        CLOUDY    43  38  82 SW3       29.92F
MILLVILLE      CLOUDY    46  40  79 CALM      29.93S
ATLANTIC CITY  CLOUDY    48  40  73 SW7       29.94F
WRIGHTSTOWN    CLOUDY    43  41  93 S3        29.90F
TOMS RIVER     CLOUDY    45  41  87 CALM      29.90F
BELMAR         CLOUDY    45  36  70 CALM      29.92S
$$

PAZ047>061-062-071-281400-
EASTERN PENNSYLVANIA

CITY           SKY/WX    TMP DP  RH WIND       PRES   REMARKS
PHILADELPHIA   CLOUDY    44  39  82 W6        29.94F
ALLENTOWN      CLOUDY    44  38  79 SW8       29.88F
SCRANTON       CLOUDY    43  37  79 S7        29.89R
$$

CTZ002-004>006-009-010-012-RIZ004-006-007-MAZ004-011-015-281400-
SOUTHERN NEW ENGLAND
 IN CT

CITY           SKY/WX    TMP DP  RH WIND       PRES   REMARKS
BRADLEY INTL   CLOUDY    44  39  82 S9        29.85F
HARTFORD       LGT RAIN  43  40  89 S9        29.87F FOG
DANBURY        LGT RAIN  43  38  82 SW6       29.87F
WTRBRY/OXFORD  CLOUDY    43  36  75 SW3       29.87F
BRIDGEPORT     LGT RAIN  45  41  86 SW8       29.90F
MERIDEN        LGT RAIN  42  40  92 S7        29.88F FOG
NEW HAVEN      LGT RAIN  48  41  76 CALM      29.89F
CHESTER        CLOUDY    45  39  81 W5        29.88F FOG
GROTON         CLOUDY    47  42  83 W9        29.89F
WILLIMANTIC    LGT RAIN  44  39  82 S3        29.88S

 IN RI

CITY           SKY/WX    TMP DP  RH WIND       PRES   REMARKS
PROVIDENCE     CLOUDY    46  40  79 SW6       29.88S
BLOCK ISLAND   CLOUDY    50  43  76 SW13G22   29.88F
WESTERLY       CLOUDY    48  43  82 SW9       29.89F

 IN MA

CITY           SKY/WX    TMP DP  RH WIND       PRES   REMARKS
BOSTON         CLOUDY    46  37  71 SW12      29.82F
WORCESTER      LGT RAIN  42  36  79 W16       29.81S
WESTFIELD      LGT RAIN  41  38  89 SE3       29.83F
PROVINCETOWN   CLOUDY    46  43  87 SW13      29.86F
NANTUCKET      MOCLDY    50  45  83 SW18      29.90S
$$

ANZ330-335-338-340-345-350-353-355-281400-
COASTAL MARINE OBSERVATIONS


STATION/POSITION TIME  SKY/WX   TEMP    WIND        PRES    VSBY  WAVE
                                AIR SEA DIR/SP/G                  HT/PER
                 (UTC)          (F)     (DEG/KT/KT) (MB)    (MI)  (FT/S)
NY HARB ENTRANCE 1300            46 45  250/  8/ 10 1014.1          3/12
4S FIRE IS       1300               47                N/A           4/13
20S FIRE ISLAND  1200            51 49              1013.7          4/13
23SW MTP         1300                                 N/A           5/ 5
HUDSON CANYON    1300            55 55  230/ 19/ 23 1014.0          6/12
EXECUTION ROCKS  1300            45 42  230/  8/ 10   N/A
WESTERN LI SOUND 1300            45     230/  8/ 10   N/A           0
CENTRAL LI SOUND 1200            45 44  240/  8/ 10   N/A           1/ 2
EASTERN LI SOUND NOT AVBL
ROBBINS REEF     1300            44                 1011.9
$$


>>>>>>>>>>>>>>>>>>>>>>>>>>>> KEY <<<<<<<<<<<<<<<<<<<<<<<<<<<
>                                                          <
>     SKY/WX - SKY CONDITION/PRESENT WEATHER               <
>     TMP    - TEMPERATURE IN FAHRENHEIT                   <
>     DP     - DEWPOINT IN FAHRENHEIT                      <
>     RH     - RELATIVE HUMIDITY IN PERCENT                <
>     WIND   - DIRECTION AND SPEED IN MPH                  <
>     PRES   - MEAN SEA LEVEL PRESSURE IN INCHES OF HG     <
>     WCI    - WIND CHILL INDEX                            <
>     VSB    - VISIBILITY IN MILES                         <
>     HX     - HEAT INDEX                                  <
>     TC     - TEMPERATURE IN CELSIUS                      <
>     VRB    - VARIABLE WIND DIRECTION                     <
>                                                          <
>>>>>>>>>>>>>>>>>>>>>>>>>>>> KEY <<<<<<<<<<<<<<<<<<<<<<<<<<<





USA.gov is the U.S. government's official web portal to all federal, state and local government web resources and services.